Location: Haliburton Scout Reserve
(45.0900°N, 78.3200°W)
Time: 01:35:46
(UTC-04:00)

ESTCUBE 1 - Pass Details

Date: 25 May 2022
Orbit: 644 x 659 km, 97.9° (Epoch: 27 June)

Event Time Altitude Azimuth Distance (km) Brightness Sun altitude
Exits shadow 00:44:05 13° 256° (WSW) 1,864 ? -23.7°
Maximum altitude 00:45:04 14° 271° (W) 1,818 ? -23.7°
Drops below altitude 10° 00:47:23 10° 302° (WNW) 2,065 ? -23.8°
Sets 00:50:42 0° 328° (NNW) 2,979 ? -23.8°
